Find Starlink 30113

NORAD ID: 56291 Int'l Des: 2023-056 Owner: SPXS Country: US Constellation: starlink operational
LEOCIRCULAR

現在のビュー

3D地球を読み込み中...

About Starlink 30113

Starlink 30113 (NORAD 56291) is a starlink constellation satellite (v2 mini) launched Apr 19, 2023 by SPXS of US. It operates in LEO, CIRCULAR orbit with a mass of 730.00 kg.

次回通過

Passes for default location (London). Set your location on the main map for personalized predictions.

高度履歴

Loading altitude history...

軌道要素

1 56291U 23056F 26263.23256731 -.00000988 00000-0 -26385-4 0 9992
2 56291 43.0017 190.1681 0001285 267.0131 93.0573 15.27582793189792
Epoch: Sep 20, 2026 • Age: 24 hours

現在のステータス

高度 486.6 km
遠地点 / 近地点 N/A
速度 7.63 km/s
衛星直下点 41.03°N, 147.48°W
打ち上げ日 Apr 19, 2023
運用期間 3.4 years
タイプ internet

技術仕様

分類 Payload
質量 730.00 kg
乾燥質量 700.00 kg
長さ 0.30 m
スパン 29.00 m
形状 ? Box + pan
製造者 SPXS
バスタイプ Starlink V2M
フェーズステータス In Orbit
所有者/国 SPXS/US

Most Searched